Regional Weather Roundup
Issued by NWS

Home | Current Version | Previous Version | Graphics & Text | Print | Product List | Glossary On
Versions: 1 2 3 4 5 6 7 8 9 10 11 12 13 14 15 16 17 18 19 20 21 22 23 24 25 26 27 28 29 30 31 32 33 34 35 36 37 38 39 40 41 42 43 44 45 46 47 48 49 50
000
ASUS45 KABQ 141910
RWRNM
NEW MEXICO REGIONAL WEATHER ROUNDUP
NATIONAL WEATHER SERVICE ALBUQUERQUE NM
1200 PM MST SUN FEB 14 2016

NOTE: "FAIR" MEANS FEW OR NO CLOUDS BELOW 12,000 FEET AGL WITH NO
       SIGNIFICANT WEATHER OR OBSTRUCTIONS TO VISION.

      THIS PRODUCT IS RELEASED AS TWO VERSIONS.  ONE VERSION NEAR
      THE TOP OF THE HOUR CONTAINING PRELIMINARY DATA FROM ALBUQUERQUE
      AND OTHER STATIONS.  A FINAL VERSION WITH ADDITIONAL DATA IS
      ISSUED ABOUT 10 MINUTES AFTER THE HOUR.

NMZ501-503-504-510>518-142000-
NORTHWEST PLATEAU/NORTHCENTRAL MOUNTAINS

CITY           SKY/WX    TMP DP  RH WIND       PRES   REMARKS
FARMINGTON     FAIR      43  24  47 W7        30.12F
LOS ALAMOS     FAIR      48  17  28 SE7       30.09F
SANTA FE       FAIR      53  16  23 SW10      30.05F
TAOS           FAIR      48  21  34 SW10G16   30.06F
ANGEL FIRE     FAIR      42  10  26 W21G28    30.06F

$$
NMZ402-403-502-505>509-142000-
WESTCENTRAL MOUNTAINS/SOUTHWEST MOUNTAINS

CITY           SKY/WX    TMP DP  RH WIND       PRES   REMARKS
GALLUP         FAIR      52  16  24 W9        30.17F
GRANTS         FAIR      58   9  14 NW8       30.14F
SILVER CITY      N/A     68   5   8 NW8       30.12F

$$
NMZ407-409-411-412-142000-
SOUTHERN DESERTS

CITY           SKY/WX    TMP DP  RH WIND       PRES   REMARKS
LORDSBURG      FAIR      66  18  15 NW8       30.10F
DEMING         FAIR      69  11  10 CALM      30.08F
LAS CRUCES     FAIR      68  13  11 NE6       30.08F
HOLLOMAN AFB   FAIR      69  11  11 W10       30.02F
ALAMOGORDO     FAIR      66  14  13 CALM      30.05F
T OR C         FAIR      64  11  12 NE7       30.08F

$$
NMZ519>523-142000-
CENTRAL VALLEYS/CENTRAL HIGHLANDS

CITY           SKY/WX    TMP DP  RH WIND       PRES   REMARKS
ALBUQUERQUE    PTSUNNY   57  16  20 CALM      30.09F
DOUBLE EAGLE   PTSUNNY   57  12  17 W8        30.10F
MORIARTY ARPT  FAIR      62   4  10 NW14      30.06F
CLINES CORNERS FAIR      54  15  21 W18       30.04F
BELEN          FAIR      60   9  13 N5        30.09F
SOCORRO        FAIR      62  12  14 N9        30.07F

$$
NMZ524>526-539-540-142000-
SOUTHCENTRAL MOUNTAINS

CITY           SKY/WX    TMP DP  RH WIND       PRES   REMARKS
RUIDOSO          N/A     55  14  19 SE9       30.11F

$$
NMZ527>531-142000-
NORTHEAST HIGHLANDS/NORTHEAST PLAINS

CITY           SKY/WX    TMP DP  RH WIND       PRES   REMARKS
LAS VEGAS      FAIR      50  19  29 S21G29    30.01F
RATON          FAIR      46  21  37 CALM      29.96F
CLAYTON        FAIR      49  16  26 S16       29.95F

$$
NMZ532>537-142000-
EASTCENTRAL PLAINS

CITY           SKY/WX    TMP DP  RH WIND       PRES   REMARKS
TUCUMCARI      FAIR      53  18  25 S9        30.00F
CANNON AFB     FAIR      49  19  31 E6        30.04F
CLOVIS AIRPORT FAIR      48  21  34 S3        30.06F

$$
NMZ028-029-538-142000-
SOUTHEAST PLAINS

CITY           SKY/WX    TMP DP  RH WIND       PRES   REMARKS
ROSWELL        FAIR      59  21  23 CALM      30.07F
ARTESIA        FAIR      59  25  27 MISG      30.08F
CARLSBAD       FAIR      61  25  25 N10       30.06F
HOBBS          SUNNY     59  18  20 N14G20    30.06F


$$



USA.gov is the U.S. government's official web portal to all federal, state and local government web resources and services.